Find Starlink 3546

NORAD ID: 51718 Int'l Des: 2022-016 Owner: SPXS Country: US Constellation: starlink operational
LEOCIRCULAR

当前视图

正在加载3D地球...

About Starlink 3546

Starlink 3546 (NORAD 51718) is a starlink constellation satellite (v1.5) launched Feb 21, 2022 by SPXS of US. It operates in LEO, CIRCULAR orbit with a mass of 297.00 kg.

即将过境

Passes for default location (London). Set your location on the main map for personalized predictions.

高度历史

Loading altitude history...

两行轨道根数

1 51718U 22016E 26264.19325752 .00017684 00000-0 73312-3 0 9992
2 51718 53.1800 153.8096 0004099 131.3681 228.7671 15.23978547254317
Epoch: Sep 21, 2026 • Age: 9 hours

当前状态

高度 507.9 km
远地点 / 近地点 N/A
速度 7.61 km/s
星下点 -40.84°S, 168.74°E
发射日期 Feb 21, 2022
运行时间 4.5 years
类型 internet

技术详情

分类 Payload
质量 297.00 kg
干质量 275.00 kg
长度 0.20 m
跨度 9.00 m
形状 ? Box + pan
制造商 SPXS
平台类型 Starlink
阶段状态 In Orbit
所有者/国家 SPXS/US

Most Searched